BREEZE-M DEB (TANK), 40386

Orbit data source: Space-Track

BREEZE-M DEB (TANK), 40386 is space debris in HEO originally from a launch on Sun, 01 Feb 2015 UTC launched from the Tyuratam Missile And Space Complex (TTMTR). Debris objects in space refer to the collection of defunct objects orbiting the Earth. Examples of debris include non-operational satellites, rocket bodies, and fragments generated from explosions, collisions, or faulty payload assembly.

Loading next visibility...
Identifier
40386, 2015-005C
Orbit
HEO
Last TLE update
1 day ago
Origin
Manufacturer
Khrunichev
Mission
Spacecraft
Bus & Motor
BRIZ TANK, Unknown motor
Mass
~1,000 kg wet, 1,000 kg dry
Launch date (UTC)
2015-02-01 (10 years ago)
Launch vehicle
Unknown
Launch site
Tyuratam Missile And Space Complex (TTMTR)
Object type
Payload
Rocket body
Debris
Shape & HBR
Torus, 4 m
Radar Cross Section
8.218 m², Large (>1 m²)

Expand to show TLE details & history

TLE from 1 day ago
0 BREEZE-M DEB (TANK)
1 40386U 15005C   25128.18454588  .00000495  00000-0  32858-3 0  9990
2 40386  50.7639 357.6880 5113011 269.6105  34.3520  5.32970502194139
Epoch: 2025-05-08T04:25Z
Definitive object data (Epoch: 2025-05-08T04:25:44.764Z)
Latitude
0.00001°
Longitude
65.00663°
Altitude
3,895.884 km
Speed
6.987 km/s
True Right ascension
23h 50m 48s
True Declination
0° 00' 00"
Sunlit
Object was in daylight at TLE epoch
Visualization TLE readout
Latitude
50.63343°
Longitude
160.54169°
Altitude
14,500.302 km
Speed
3.068 km/s
Apparent Right ascension
06h 02m 11s
Apparent Declination
33° 39' 15"
Sunlit
Object is in daylight
Visualization observer readout
Local Sidereal Time
17:33:00
Azimuth
353.684° N
Elevation
-16.121°
Doppler factor
1
Orbital elements
Apogee altitude
14,545.318 km
Perigee altitude
387.735 km
Semi-major axis
13,844.663 km
Eccentricity
0.5113011
Inclination
50.7639°
RAAN
357.688°
Arg. of periapsis
269.6105°
True anomaly
90.43791°
Mean anomaly
34.352°
Eccentric anomaly
59.62654°
Mean motion
1.33235 °/min
BSTAR
0.00032858
Orbital period
270.2 mins
Loading maneuver chart data...
Loading SW <> Apogee altitude chart data...
Loading historical data...
Loading historical data...
Loading historical data...
Loading historical data...
Loading historical data...
Loading historical data...
Loading historical data...
Other satellites on launch #5 in the year 2015 (2015-02-01 UTC)

BREEZE-M DEB (TANK) Visibility forecast

Observer location: undefined°, undefined°

Span
Click to sort rows by Start time (UTC) header in descending order
Start Az.
Max El. time (UTC)
Max El. Az.
Max El.
End time (UTC)
End Az.
168 mins2025-05-09 16:26:41.242Z199.56° SSW2025-05-09 17:02:41.242Z117.163° SE43.546°2025-05-09 19:14:41.242Z60.706° ENE
188 mins2025-05-09 21:21:41.242Z276.097° WNW2025-05-09 23:28:41.242Z30.584° NE44.566°2025-05-10 00:29:41.242Z121.41° SE
121 mins2025-05-10 03:02:41.242Z313.685° NW2025-05-10 04:30:41.242Z275.378° WNW28.363°2025-05-10 05:03:41.242Z219.315° SW
|